Regional Weather Roundup
Issued by NWS Grand Forks, ND

Home | Current Version | Previous Version | Graphics & Text | Print | Product List | Glossary On
Versions: 1 2 3 4 5 6 7 8 9 10 11 12 13 14 15 16 17 18 19 20 21 22 23 24 25 26 27 28 29 30 31 32 33 34 35 36 37 38 39 40 41 42 43 44 45 46 47 48 49 50
588
ASUS43 KFGF 280910
RWRFGF
PRAIRIE TO PINES  WEATHER ROUNDUP
NATIONAL WEATHER SERVICE EASTERN NORTH DAKOTA/GRAND FORKS ND
400 AM CDT WED JUN 28 2017

 **SATELLITE DATA USED TO AUGMENT SKY COVER AT AUTOMATED STATIONS**
 *****  WEATHER ACROSS EASTERN NORTH DAKOTA  *****

CITY           SKY/WX    TMP DP  RH WIND       PRES   REMARKS
GRAND FORKS    FAIR      61  59  93 S15       29.49F
GRAND FRKS AFB CLOUDY    60  59  96 S8        29.50F
DEVILS LAKE    RAIN      63  63 100 SE6       29.56R FOG
FARGO          FAIR      66  60  81 SE15G25   29.48F
WAHPETON ARPT  CLOUDY    63  55  77 E8        29.49F
$$

 ***** WEATHER ACROSS CENTRAL AND WESTERN NORTH DAKOTA  *****

CITY           SKY/WX    TMP DP  RH WIND       PRES   REMARKS
BISMARCK       FAIR      63  61  93 NW6       29.56R
MINOT          FAIR      64  57  78 NW17      29.56R
JAMESTOWN      FAIR      61  55  81 NE5       29.47F
MINOT AFB      FAIR      62  57  83 NW16      29.55S
GARRISON         N/A     62  57  83 N16       29.56S
WILLISTON      FAIR      64  42  44 N16G24    29.67F
DICKINSON      CLOUDY    61  55  81 NW14      29.65R
HETTINGER      CLOUDY    64  55  72 NW14      29.69R
$$

 *****  OTHER AIRPORT OBSERVATIONS IN OUR AREA  *****

CITY           SKY/WX    TMP DP  RH WIND       PRES   REMARKS
WALHALLA       NOT AVBL
GRAFTON AIRPOR CLOUDY    59  59 100 S8G15     29.55R
VALLEY CITY AR FAIR      61  61 100 E8        29.48F
CANDO          NOT AVBL
CAVALIER APRT  FAIR      63  52  67 SE5       29.49F
GWINNER        CLOUDY    64  59  82 SE7       29.44F
SHEYENNE NWR     N/A     63  57  81 SE8       29.95S
ROLLA            N/A     63  59  88 NW12      29.52F
 ***** THE ABOVE OBSERVATIONS ARE NON NWS ARE NOT QUALITY
       CONTROLLED AND MAY MIS-REPORT RAIN FOR SNOW...
$$

  *****  WEATHER ACROSS NORTHERN MINNESOTA  *****

CITY           SKY/WX    TMP DP  RH WIND       PRES   REMARKS
FLAG ISLAND    FAIR      64  50  59 SE8       29.59F
WARROAD        FAIR      63  52  67 SE8       29.57F
ROSEAU         FAIR      63  54  72 SE6       29.57F
HALLOCK        DRIZZLE   63  52  67 SE9       29.50F
THF RVR FALLS  RAIN      59  56  89 SE12      29.58F
BAUDETTE       MOCLDY    58  50  75 SE7       29.60F
WASKISH        MOCLDY    61  50  67 SE8       29.61F
CROOKSTON      FAIR      57  57 100 SE12      29.54F
STEPHEN NDAWN    N/A     61  55  82 SE12        N/A
GREENBUSH NDAW   N/A     63  48  59 S10         N/A
$$
  *****  WEATHER ACROSS CENTRAL AND WEST MINNESOTA  *****

CITY           SKY/WX    TMP DP  RH WIND       PRES   REMARKS
FOSSTON        CLOUDY    57  55  94 SE10G18   29.61F
BEMIDJI        CLOUDY    60  52  75 SE6       29.64R
PARK RAPIDS    LGT RAIN  60  52  74 SE8       29.62F
ELBOW LAKE     CLOUDY    63  58  84 E16G24    29.55F
WADENA         CLOUDY    57  54  88 S6        29.62S
DETROIT LAKES  CLOUDY    59  55  88 SE17      29.59F
MOORHEAD       MOCLDY    64  59  82 SE14G21   29.51F
FERGUS FALLS   MOCLDY    64  59  82 SE12G21   29.52F
MORRIS MN      MOCLDY    64  57  77 SE20      29.52F
STAPLES        FAIR      63  48  59 S10G16    29.62F
$$
  *****  WEATHER ELSEWHERE ACROSS MINNESOTA  *****

CITY           SKY/WX    TMP DP  RH WIND       PRES   REMARKS
DULUTH         FAIR      57  47  69 S7        29.74R
INTRNTL FALLS  CLOUDY    54  46  74 SE8       29.65F
ELY            FAIR      46  45  93 CALM      29.73S
CLOQUET        FAIR      55  45  67 SE3       29.72S
WHEATON        FAIR      66  61  82 E13       29.50R
BRAINERD       MOCLDY    63  49  60 SE8       29.65S
HIBBING        FAIR      50  45  83 S3        29.71S
ALEXANDRIA     CLOUDY    62  60  93 SE18G26   29.60F
SAINT CLOUD    TSTM      64  58  80 S14       29.64F
MINNEAPOLIS    TSTM      64  54  69 S16G26    29.71R
$$

  *****  WEATHER ACROSS SOUTH DAKOTA  *****

CITY           SKY/WX    TMP DP  RH WIND       PRES   REMARKS
SIOUX FALLS    CLOUDY    66 N/A N/A SW5       29.55F
BROOKINGS      FAIR      64  62  93 S12       29.53F
WATERTOWN      FAIR      68  62  81 S16G25    29.48F
HURON          FAIR      68  60  75 SW12      29.50F
SISSETON         N/A     67  62  84 S8        29.43F
ABERDEEN       FAIR      66  60  81 S16       29.46F
MITCHELL       FAIR      68  61  78 S10       29.54F
PIERRE         LGT RAIN  70  55  59 W15       29.57R
MOBRIDGE       FAIR      69  56  62 NW14      29.53R
RAPID CITY     FAIR      63  50  62 N13       29.75R
$$

  *****  SOME WEATHER IN NEARBY STATES *****

CITY           SKY/WX    TMP DP  RH WIND       PRES   REMARKS
GLASGOW MT     FAIR      50  40  68 E8        29.73F
GREAT FALLS MT FAIR      52  42  69 SW10      29.77S
CHEYENNE WY    FAIR      57  39  51 NW5       29.98F
SCOTTSBLUFF NE FAIR      56  49  77 NW7       29.86S
OMAHA NE       TSTM      68  63  84 S13G23    29.82R
DES MOINES IA  CLOUDY    75  63  66 S18       29.78R THUNDER
DAVENPORT IA   NOT AVBL
CHICAGO IL     FAIR      60  47  61 S10       30.00S
EAU CLAIRE WI  MOCLDY    63  47  55 S12       29.78S
LA CROSSE WI   MOCLDY    70  50  49 S12       29.80F
$$

  *****  SOME NATIONAL WEATHER *****

CITY           SKY/WX    TMP DP  RH WIND       PRES   REMARKS
LA GUARDIA NY  FAIR      64  53  67 NW12      30.07R
RALEIGH NC     FAIR      60  56  86 N3        30.16R
ATLANTA GA     FAIR      69  57  65 NE8       30.10S
NEW ORLEANS LA MOCLDY    75  70  84 CALM      29.98S
OKLAHOMA CITY  FAIR      72  68  87 S15       29.90S
ALBUQUERQUE NM FAIR      73  35  25 S14       30.02F
SALT LAKE CITY FAIR      69  38  32 SW6       29.84S
LOS ANGELES CA FAIR      63  59  87 S14       29.85S
BOISE ID       FAIR      66  48  52 SW3       29.79S
SEATTLE WA     FAIR      55  51  86 S9        29.99S
$$

*** WEATHER ACROSS MANITOBA...SASKATCHEWAN AND ONTARIO ***
                ***ONTARIO***

CITY           SKY/WX    TMP DP  RH WIND       PRES   REMARKS
GERALDTON      MOCLDY    50  46  87 S5        29.76F
THUNDER BAY    PTCLDY    48  46  93 NE5       29.77F
SIOUX LOOKOUT  PTCLDY    48  48 100 SE5       29.72R
TORONTO        PTCLDY    54  48  82 W7        30.03R
BIG TROUT LK   CLOUDY    45  43  93 NE7       29.81S FOG
PICKLE LAKE    NOT AVBL
DRYDEN         CLOUDY    59  50  72 SE5       29.69F
KENORA         MOCLDY    61  48  63 SE8       29.64F
$$
                *** MANITOBA***

CITY           SKY/WX    TMP DP  RH WIND       PRES   REMARKS
BRANDON        PTCLDY    61  57  88 NW10      29.51S
DAUPHIN        CLEAR     63  59  88 W12       29.49S
ISLAND LAKE    CLOUDY    50  46  87 E8        29.74F
PILOT MOUND      N/A     59  54  82 S3          N/A
THE PAS        LGT RAIN  52  50  93 E14G22    29.51F
THOMPSON       MOCLDY    46  37  71 E13G23    29.78S
WINNIPEG       CLOUDY    64  50  59 SE10      29.51F
LYNN LAKE      CLOUDY    46  36  66 E16G28    29.77R
CHURCHILL      FOG       39  39 100 E10       30.00R VSB 1/8
GILLAM         CLOUDY    37  37 100 E6        29.89F
$$
                ***SASKATCHEWAN***

CITY           SKY/WX    TMP DP  RH WIND       PRES   REMARKS
ESTEVAN        MOCLDY    52  46  82 NW14G22   29.64S
KINDERSLEY     PTCLDY    50  46  87 SW5       29.73F
LLOYDMINSTER   CLEAR     48  46  93 SW8       29.65F
PRINCE ALBERT  PTCLDY    52  46  82 W9        29.59R
REGINA         CLEAR     43  41  93 W9        29.69F
YORKTON        CLEAR     52  46  82 W9        29.59S
N. BATTLEFORD  CLEAR     48  45  87 W5        29.67F
LA RONGE       LGT RAIN  52  52 100 E12       29.57S FOG
SASKATOON      PTCLDY    45  41  87 W7        29.66S
SWIFT CURRENT  CLOUDY    52  39  62 VRB2      29.74R
$$
NOTE: THESE ARE AUTOMATED STATIONS WITH LIMITED QUALITY CONTROL
      "FAIR" INDICATES FEW OR NO CLOUDS BELOW 12,000 FEET WITH NO
      SIGNIFICANT WEATHER AND/OR OBSTRUCTIONS TO VISIBILITY.
      SKY/WX - SKY CONDITION AND SIGNIFICANT WEATHER.
      TMP - AIR TEMPERATURE.    DP   - DEWPOINT TEMPERATURE.
      RH  - RELATIVE HUMIDITY.  PRES - PRESSURE.
      HX  - HEAT INDEX.         WCI  - WIND CHILL INDEX.
$




USA.gov is the U.S. government's official web portal to all federal, state and local government web resources and services.